Time,TemperatureF,DewpointF,PressureIn,WindDirection,WindDirectionDegrees,WindSpeedMPH,WindSpeedGustMPH,Humidity,HourlyPrecipIn,Conditions,Clouds,dailyrainin,SoftwareType,DateUTC
2013-03-19 00:08:00,60.2,52.0,29.98,NNW,342,1.0,4.0,75,0.00,,,0.00,weatherlink.com 1.10,2013-03-19 05:08:00,
2013-03-19 00:24:00,60.0,52.0,29.98,NNW,341,0.0,4.0,76,0.00,,,0.00,weatherlink.com 1.10,2013-03-19 05:24:00,
2013-03-19 00:39:00,59.9,52.0,29.98,NNW,341,0.0,3.0,74,0.00,,,0.00,weatherlink.com 1.10,2013-03-19 05:39:00,
2013-03-19 00:54:00,60.0,52.0,29.99,NNW,346,1.0,4.0,74,0.00,,,0.00,weatherlink.com 1.10,2013-03-19 05:54:00,
2013-03-19 01:09:00,59.5,52.0,29.99,NNW,346,1.0,3.0,75,0.00,,,0.00,weatherlink.com 1.10,2013-03-19 06:09:00,
2013-03-19 01:24:00,59.2,52.0,29.99,NNW,337,4.0,4.0,77,0.00,,,0.00,weatherlink.com 1.10,2013-03-19 06:24:00,
2013-03-19 01:39:00,59.3,52.0,29.99,NNW,334,1.0,5.0,76,0.00,,,0.00,weatherlink.com 1.10,2013-03-19 06:39:00,
2013-03-19 01:54:00,59.6,52.0,30.00,NNW,346,3.0,5.0,75,0.00,,,0.00,weatherlink.com 1.10,2013-03-19 06:54:00,
2013-03-19 02:09:00,59.7,51.0,30.00,NW,313,3.0,5.0,74,0.00,,,0.00,weatherlink.com 1.10,2013-03-19 07:09:00,
2013-03-19 02:24:00,59.3,51.0,30.00,North,5,0.0,4.0,73,0.00,,,0.00,weatherlink.com 1.10,2013-03-19 07:24:00,
2013-03-19 02:39:00,58.9,51.0,30.00,West,281,0.0,3.0,74,0.00,,,0.00,weatherlink.com 1.10,2013-03-19 07:39:00,
2013-03-19 02:54:00,58.9,50.0,30.00,NNE,18,0.0,9.0,73,0.00,,,0.00,weatherlink.com 1.10,2013-03-19 07:54:00,
2013-03-19 03:09:00,58.6,50.0,30.00,NNW,347,0.0,4.0,72,0.00,,,0.00,weatherlink.com 1.10,2013-03-19 08:09:00,
2013-03-19 03:24:00,58.2,50.0,30.00,NE,38,0.0,2.0,73,0.00,,,0.00,weatherlink.com 1.10,2013-03-19 08:24:00,
2013-03-19 03:39:00,57.8,50.0,30.00,North,9,0.0,5.0,75,0.00,,,0.00,weatherlink.com 1.10,2013-03-19 08:39:00,
2013-03-19 03:54:00,57.5,50.0,29.99,NE,46,5.0,5.0,75,0.00,,,0.00,weatherlink.com 1.10,2013-03-19 08:54:00,
2013-03-19 04:09:00,57.2,50.0,29.99,ESE,122,0.0,2.0,76,0.00,,,0.00,weatherlink.com 1.10,2013-03-19 09:09:00,
2013-03-19 04:24:00,56.8,50.0,29.98,East,96,2.0,5.0,77,0.00,,,0.00,weatherlink.com 1.10,2013-03-19 09:24:00,
2013-03-19 04:39:00,56.8,49.0,29.97,NE,38,1.0,4.0,76,0.00,,,0.00,weatherlink.com 1.10,2013-03-19 09:39:00,
2013-03-19 04:54:00,56.5,49.0,29.98,SE,137,0.0,3.0,77,0.00,,,0.00,weatherlink.com 1.10,2013-03-19 09:54:00,
2013-03-19 05:09:00,56.0,49.0,29.99,ENE,58,0.0,5.0,78,0.00,,,0.00,weatherlink.com 1.10,2013-03-19 10:09:00,
2013-03-19 05:24:00,55.9,49.0,29.99,East,90,2.0,4.0,78,0.00,,,0.00,weatherlink.com 1.10,2013-03-19 10:24:00,
2013-03-19 05:39:00,55.5,49.0,29.98,NNE,32,1.0,4.0,79,0.00,,,0.00,weatherlink.com 1.10,2013-03-19 10:39:00,
2013-03-19 05:54:00,55.2,49.0,29.98,East,86,0.0,5.0,79,0.00,,,0.00,weatherlink.com 1.10,2013-03-19 10:54:00,
2013-03-19 06:09:00,54.9,48.0,29.98,ENE,69,0.0,4.0,78,0.00,,,0.00,weatherlink.com 1.10,2013-03-19 11:09:00,
2013-03-19 06:24:00,54.5,48.0,29.98,ENE,76,0.0,4.0,78,0.00,,,0.00,weatherlink.com 1.10,2013-03-19 11:24:00,
2013-03-19 06:39:00,54.2,46.0,29.98,ESE,113,0.0,6.0,75,0.00,,,0.00,weatherlink.com 1.10,2013-03-19 11:39:00,
2013-03-19 06:54:00,53.8,46.0,29.97,SSE,150,0.0,3.0,75,0.00,,,0.00,weatherlink.com 1.10,2013-03-19 11:54:00,
2013-03-19 07:09:00,53.6,46.0,29.99,NE,36,0.0,4.0,75,0.00,,,0.00,weatherlink.com 1.10,2013-03-19 12:09:00,
2013-03-19 07:24:00,53.3,45.0,29.99,East,98,1.0,2.0,74,0.00,,,0.00,weatherlink.com 1.10,2013-03-19 12:24:00,
2013-03-19 07:39:00,53.0,46.0,29.99,ENE,78,0.0,2.0,76,0.00,,,0.00,weatherlink.com 1.10,2013-03-19 12:39:00,
2013-03-19 07:54:00,52.7,45.0,30.00,ENE,57,0.0,3.0,76,0.00,,,0.00,weatherlink.com 1.10,2013-03-19 12:54:00,
2013-03-19 08:09:00,52.7,46.0,30.02,WNW,288,0.0,6.0,77,0.00,,,0.00,weatherlink.com 1.10,2013-03-19 13:09:00,
2013-03-19 08:24:00,52.9,46.0,30.03,WNW,288,0.0,2.0,78,0.00,,,0.00,weatherlink.com 1.10,2013-03-19 13:24:00,
2013-03-19 08:39:00,53.7,46.0,30.04,ENE,67,3.0,3.0,74,0.00,,,0.00,weatherlink.com 1.10,2013-03-19 13:39:00,
2013-03-19 08:54:00,54.6,45.0,30.04,North,9,1.0,4.0,71,0.00,,,0.00,weatherlink.com 1.10,2013-03-19 13:54:00,
2013-03-19 09:09:00,55.4,46.0,30.05,NNW,344,1.0,5.0,70,0.00,,,0.00,weatherlink.com 1.10,2013-03-19 14:09:00,
2013-03-19 09:24:00,57.3,46.0,30.05,ENE,61,0.0,6.0,65,0.00,,,0.00,weatherlink.com 1.10,2013-03-19 14:24:00,
2013-03-19 09:39:00,58.9,45.0,30.06,ENE,59,0.0,7.0,61,0.00,,,0.00,weatherlink.com 1.10,2013-03-19 14:39:00,
2013-03-19 09:55:00,59.5,46.0,30.07,North,355,2.0,4.0,61,0.00,,,0.00,weatherlink.com 1.10,2013-03-19 14:55:00,
2013-03-19 10:10:00,60.8,45.0,30.07,NE,46,0.0,5.0,56,0.00,,,0.00,weatherlink.com 1.10,2013-03-19 15:10:00,
2013-03-19 10:25:00,61.5,44.0,30.07,NNE,19,0.0,4.0,54,0.00,,,0.00,weatherlink.com 1.10,2013-03-19 15:25:00,
2013-03-19 10:40:00,61.4,44.0,30.07,North,5,1.0,4.0,54,0.00,,,0.00,weatherlink.com 1.10,2013-03-19 15:40:00,
2013-03-19 10:55:00,63.2,44.0,30.07,NE,50,1.0,5.0,49,0.00,,,0.00,weatherlink.com 1.10,2013-03-19 15:55:00,
2013-03-19 11:10:00,63.5,44.0,30.07,East,82,3.0,5.0,49,0.00,,,0.00,weatherlink.com 1.10,2013-03-19 16:10:00,
2013-03-19 11:25:00,63.9,44.0,30.06,NNE,28,2.0,4.0,48,0.00,,,0.00,weatherlink.com 1.10,2013-03-19 16:25:00,
2013-03-19 11:40:00,65.3,44.0,30.07,ENE,59,1.0,4.0,47,0.00,,,0.00,weatherlink.com 1.10,2013-03-19 16:40:00,
2013-03-19 11:55:00,66.0,44.0,30.06,NNW,335,1.0,6.0,45,0.00,,,0.00,weatherlink.com 1.10,2013-03-19 16:55:00,
2013-03-19 12:10:00,66.5,44.0,30.05,NNE,13,2.0,5.0,44,0.00,,,0.00,weatherlink.com 1.10,2013-03-19 17:10:00,
2013-03-19 12:25:00,67.5,43.0,30.05,East,88,2.0,5.0,41,0.00,,,0.00,weatherlink.com 1.10,2013-03-19 17:25:00,
2013-03-19 12:40:00,67.9,43.0,30.04,SE,128,2.0,9.0,40,0.00,,,0.00,weatherlink.com 1.10,2013-03-19 17:40:00,
2013-03-19 12:55:00,68.8,43.0,30.04,NE,49,1.0,5.0,39,0.00,,,0.00,weatherlink.com 1.10,2013-03-19 17:55:00,
2013-03-19 13:10:00,69.5,43.0,30.03,SE,140,2.0,5.0,39,0.00,,,0.00,weatherlink.com 1.10,2013-03-19 18:10:00,
2013-03-19 13:25:00,71.9,44.0,30.02,NE,54,2.0,5.0,37,0.00,,,0.00,weatherlink.com 1.10,2013-03-19 18:25:00,
2013-03-19 13:40:00,71.7,45.0,30.01,SE,137,6.0,9.0,38,0.00,,,0.00,weatherlink.com 1.10,2013-03-19 18:40:00,
2013-03-19 13:55:00,72.1,44.0,30.00,NE,55,2.0,4.0,37,0.00,,,0.00,weatherlink.com 1.10,2013-03-19 18:55:00,
2013-03-19 14:10:00,72.6,45.0,30.00,NE,36,3.0,6.0,38,0.00,,,0.00,weatherlink.com 1.10,2013-03-19 19:10:00,
2013-03-19 14:25:00,74.1,45.0,29.99,SSE,156,6.0,11.0,36,0.00,,,0.00,weatherlink.com 1.10,2013-03-19 19:25:00,
2013-03-19 14:40:00,74.5,46.0,29.99,SE,146,4.0,7.0,36,0.00,,,0.00,weatherlink.com 1.10,2013-03-19 19:40:00,
2013-03-19 14:55:00,73.8,47.0,29.98,East,101,5.0,5.0,38,0.00,,,0.00,weatherlink.com 1.10,2013-03-19 19:55:00,
2013-03-19 15:10:00,73.6,46.0,29.97,NNW,344,3.0,5.0,38,0.00,,,0.00,weatherlink.com 1.10,2013-03-19 20:10:00,
2013-03-19 15:25:00,74.2,48.0,29.96,NNW,329,1.0,4.0,39,0.00,,,0.00,weatherlink.com 1.10,2013-03-19 20:25:00,
2013-03-19 15:40:00,75.5,47.0,29.97,ENE,63,1.0,3.0,36,0.00,,,0.00,weatherlink.com 1.10,2013-03-19 20:40:00,
2013-03-19 15:55:00,74.4,47.0,29.96,NE,48,1.0,4.0,38,0.00,,,0.00,weatherlink.com 1.10,2013-03-19 20:55:00,
2013-03-19 16:10:00,73.8,48.0,29.96,NE,52,1.0,3.0,40,0.00,,,0.00,weatherlink.com 1.10,2013-03-19 21:10:00,
2013-03-19 16:25:00,74.3,48.0,29.96,ENE,76,0.0,3.0,40,0.00,,,0.00,weatherlink.com 1.10,2013-03-19 21:25:00,
2013-03-19 16:40:00,73.5,47.0,29.96,East,81,2.0,3.0,39,0.00,,,0.00,weatherlink.com 1.10,2013-03-19 21:40:00,
2013-03-19 16:55:00,74.3,47.0,29.96,East,90,0.0,4.0,38,0.00,,,0.00,weatherlink.com 1.10,2013-03-19 21:55:00,
2013-03-19 17:10:00,73.3,48.0,29.96,SE,128,1.0,3.0,41,0.00,,,0.00,weatherlink.com 1.10,2013-03-19 22:10:00,
2013-03-19 17:25:00,73.7,48.0,29.96,ENE,69,2.0,4.0,40,0.00,,,0.00,weatherlink.com 1.10,2013-03-19 22:25:00,
2013-03-19 17:40:00,73.1,48.0,29.95,NNE,32,0.0,3.0,41,0.00,,,0.00,weatherlink.com 1.10,2013-03-19 22:40:00,
2013-03-19 17:55:00,72.8,48.0,29.95,NNE,30,1.0,2.0,42,0.00,,,0.00,weatherlink.com 1.10,2013-03-19 22:55:00,
2013-03-19 18:10:00,72.6,49.0,29.95,ESE,121,0.0,1.0,44,0.00,,,0.00,weatherlink.com 1.10,2013-03-19 23:10:00,
2013-03-19 18:25:00,72.3,50.0,29.95,ESE,119,0.0,2.0,45,0.00,,,0.00,weatherlink.com 1.10,2013-03-19 23:25:00,
2013-03-19 18:40:00,71.3,50.0,29.95,ESE,119,0.0,1.0,47,0.00,,,0.00,weatherlink.com 1.10,2013-03-19 23:40:00,
2013-03-19 18:55:00,70.5,50.0,29.95,ESE,113,0.0,3.0,49,0.00,,,0.00,weatherlink.com 1.10,2013-03-19 23:55:00,
2013-03-19 19:10:00,69.4,53.0,29.96,ESE,113,0.0,2.0,56,0.00,,,0.00,weatherlink.com 1.10,2013-03-20 00:10:00,
2013-03-19 19:25:00,68.3,53.0,29.96,ESE,113,0.0,2.0,58,0.00,,,0.00,weatherlink.com 1.10,2013-03-20 00:25:00,
2013-03-19 19:40:00,67.7,52.0,29.96,North,360,1.0,3.0,57,0.00,,,0.00,weatherlink.com 1.10,2013-03-20 00:40:00,
2013-03-19 19:55:00,67.3,50.0,29.96,NE,39,0.0,2.0,55,0.00,,,0.00,weatherlink.com 1.10,2013-03-20 00:55:00,
2013-03-19 20:10:00,67.3,49.0,29.97,NNE,31,0.0,2.0,53,0.00,,,0.00,weatherlink.com 1.10,2013-03-20 01:10:00,
2013-03-19 20:25:00,67.2,49.0,29.98,North,360,1.0,4.0,53,0.00,,,0.00,weatherlink.com 1.10,2013-03-20 01:25:00,
2013-03-19 20:40:00,67.0,48.0,29.98,NE,42,0.0,4.0,50,0.00,,,0.00,weatherlink.com 1.10,2013-03-20 01:40:00,
2013-03-19 20:55:00,67.0,46.0,29.98,NNW,346,1.0,3.0,48,0.00,,,0.00,weatherlink.com 1.10,2013-03-20 01:55:00,
2013-03-19 21:10:00,66.7,47.0,29.99,NNW,346,2.0,2.0,49,0.00,,,0.00,weatherlink.com 1.10,2013-03-20 02:10:00,
2013-03-19 21:25:00,66.2,48.0,30.00,NNW,346,0.0,3.0,52,0.00,,,0.00,weatherlink.com 1.10,2013-03-20 02:25:00,
2013-03-19 21:40:00,65.9,47.0,30.01,NNW,336,2.0,4.0,50,0.00,,,0.00,weatherlink.com 1.10,2013-03-20 02:40:00,
2013-03-19 21:55:00,65.6,47.0,30.03,NNW,336,0.0,2.0,52,0.00,,,0.00,weatherlink.com 1.10,2013-03-20 02:55:00,
2013-03-19 22:10:00,65.4,45.0,30.03,NNW,346,1.0,5.0,48,0.00,,,0.00,weatherlink.com 1.10,2013-03-20 03:10:00,
2013-03-19 22:25:00,65.3,43.0,30.02,NW,324,1.0,4.0,45,0.00,,,0.00,weatherlink.com 1.10,2013-03-20 03:25:00,
2013-03-19 22:40:00,65.1,42.0,30.02,North,355,2.0,4.0,44,0.00,,,0.00,weatherlink.com 1.10,2013-03-20 03:40:00,
2013-03-19 22:55:00,64.8,40.0,30.02,NE,56,1.0,4.0,41,0.00,,,0.00,weatherlink.com 1.10,2013-03-20 03:55:00,
2013-03-19 23:10:00,64.4,41.0,30.02,ENE,69,0.0,3.0,43,0.00,,,0.00,weatherlink.com 1.10,2013-03-20 04:10:00,
2013-03-19 23:25:00,63.9,40.0,30.02,East,101,1.0,6.0,42,0.00,,,0.00,weatherlink.com 1.10,2013-03-20 04:25:00,
2013-03-19 23:40:00,63.5,40.0,30.01,NE,49,1.0,6.0,43,0.00,,,0.00,weatherlink.com 1.10,2013-03-20 04:40:00,
2013-03-19 23:55:00,63.1,41.0,30.02,NNE,29,1.0,4.0,45,0.00,,,0.00,weatherlink.com 1.10,2013-03-20 04:55:00,